Regional Weather Roundup
Issued by NWS State College, PA

Home | Current Version | Previous Version | Graphics & Text | Print | Product List | Glossary On
Versions: 1 2 3 4 5 6 7 8 9 10 11 12 13 14 15 16 17 18 19 20 21 22 23 24 25 26 27 28 29 30 31 32 33 34 35 36 37 38 39 40 41 42 43 44 45 46 47 48 49 50
000
ASUS41 KCTP 301303
RWRCTP

REGIONAL WEATHER ROUNDUP
NATIONAL WEATHER SERVICE STATE COLLEGE PA
900 AM EDT SAT APR 30 2016

Note: "fair" indicates few or no clouds below 12,000 feet with no
significant weather and/or obstructions to visibility.

* = STATION THAT DOES NOT REPORT PRECIPITATION /E.G. RAIN...SNOW...ETC/
    THUNDER OR FOG.

PAZ002>004-007>009-013>016-020>023-029>032-301400-
WESTERN PENNSYLVANIA

CITY           SKY/WX    TMP DP  RH WIND       PRES   REMARKS
ERIE           PTSUNNY   47  40  76 N6        30.17S
MEADVILLE      CLOUDY    44  41  89 SE5       30.14S
FRANKLIN*      CLOUDY    45  41  87 E5        30.17S
NEW CASTLE     CLOUDY    49  44  83 E7        30.15F
BEAVER COUNTY  CLOUDY    46  43  87 CALM      30.14
BUTLER*        CLOUDY    48  43  81 E8        30.16S
PITTSBURGH INT PTSUNNY   49  43  80 NE7       30.12F
PITTSBURGH     CLOUDY    50  44  80 NE6       30.11F
INDIANA*       CLOUDY    50  46  87 E6        30.18S
LATROBE        MOSUNNY   52  50  93 NE7       30.14S
WASHINGTON CO* CLOUDY    48  45  87 NE7       30.12S
$$

PAZ004>006-010>012-017>019-024>028-033>037-041-042-045-046-049>053-301400-
CENTRAL PENNSYLVANIA

CITY           SKY/WX    TMP DP  RH WIND       PRES   REMARKS
BRADFORD       CLOUDY    42  37  82 SE9       30.16S
DUBOIS         CLOUDY    45  42  89 E9        30.15S
CLEARFIELD     CLOUDY    45  42  89 E6        30.17S
JOHNSTOWN      CLOUDY    47  41  80 E6        30.13S
ALTOONA        FOG       46  44  93 NE5       30.17R VSB 1/2
STATE COLLEGE  CLOUDY    46  45  93 NE6       30.18S FOG
WILLIAMSPORT   CLOUDY    48  41  76 NE5       30.20F
SELINSGROVE    CLOUDY    47  41  80 CALM      30.22S
FT INDIANTOWN  CLOUDY    46  42  85 NE3       30.22R
CAPITAL CITY   CLOUDY    47  41  80 E6        30.22S
HARRISBURG     CLOUDY    48  41  76 VRB3      30.21S
YORK           CLOUDY    46  42  86 NE8       30.21S
$$

PAZ038>040-043-044-047-048-054-055-060>062-067>071-301400-
EASTERN PENNSYLVANIA

CITY           SKY/WX    TMP DP  RH WIND       PRES   REMARKS
SCRANTON       CLOUDY    46  40  79 CALM      30.21R
MOUNT POCONO   CLOUDY    42  36  79 CALM      30.18S
ALLENTOWN      CLOUDY    49  40  71 NE5       30.23R
QUAKERTOWN*    CLOUDY    46  39  76 CALM      30.23R
READING        CLOUDY    49  40  71 VRB6      30.21F
LANCASTER      CLOUDY    48  41  76 NE8       30.22R
COATESVILLE    CLOUDY    46  43  87 E8        30.22S
POTTSTOWN      CLOUDY    48  40  73 NE8       30.23S
BLUE BELL      CLOUDY    46  41  81 CALM      30.22R
DOYLESTOWN     CLOUDY    48  41  76 N7        30.22R
WILLOW GROVE   NOT AVBL
NORTH PHILA    CLOUDY    51  41  68 NE9       30.24R
PHILADELPHIA   CLOUDY    51  39  63 NE8       30.23R
$$




USA.gov is the U.S. government's official web portal to all federal, state and local government web resources and services.